Wind_Speed
9 10 11 12 12 12 11 11 11 11 12 12 13 13 14 14 14 14 14 13 13 13 12 12 13 13 13 14 14 15 15 16 16 16 16 16 16 16 16 16 16 17 17
9 10 11 12 12 12 12 12 12 12 12 13 13 14 14 14 15 14 14 14 14 14 13 13 13 13 14 14 15 15 15 16 16 16 16 16 17 16 17 17 17 17 17
9 10 12 12 13 13 13 13 12 13 13 14 14 14 14 14 15 15 15 14 15 15 15 15 15 14 14 15 15 15 15 16 16 16 16 17 17 17 17 17 17 17 17
11 12 13 13 13 14 14 14 13 14 14 15 15 15 15 15 15 15 15 15 16 17 17 17 16 16 16 16 16 16 17 17 16 17 17 18 18 17 17 17 17 18 18
13 13 13 14 15 15 15 14 14 15 15 16 16 16 16 16 16 16 16 16 17 17 18 18 17 17 17 17 17 18 18 18 18 18 18 19 18 17 18 18 18 18 18
14 15 15 16 16 16 16 16 16 16 16 16 17 17 17 18 18 17 17 17 18 18 19 19 19 18 18 19 19 19 19 19 19 20 20 20 19 19 19 19 19 19 19
16 16 17 17 17 17 18 18 18 18 18 18 18 19 19 19 19 20 19 19 19 19 20 20 20 20 20 20 20 21 21 21 21 21 21 21 21 20 20 21 21 21 20
18 18 19 19 20 20 20 20 20 20 20 20 20 20 20 21 21 21 21 20 21 21 21 21 20 21 22 21 22 22 22 22 23 23 22 22 22 22 22 22 22 22 21
21 21 21 22 22 22 22 22 22 22 21 22 22 22 22 22 22 22 22 23 23 23 23 23 22 22 23 23 23 23 23 23 23 23 24 24 23 23 23 23 23 23 22
23 23 23 24 24 24 24 23 23 24 24 24 24 24 24 23 24 23 24 24 25 25 25 25 24 24 24 24 24 24 24 24 25 25 25 25 25 25 24 24 24 24 23
25 26 26 26 26 26 26 26 26 26 26 26 26 25 25 25 25 25 26 26 27 26 26 26 26 26 26 25 25 25 25 25 26 26 26 26 25 25 25 25 25 24 24
28 28 29 29 28 28 28 27 28 27 28 27 27 27 26 26 27 27 27 28 28 27 28 28 28 26 26 26 26 25 26 26 27 27 27 27 26 25 25 26 26 26 25
30 31 31 31 30 30 29 29 29 29 29 28 28 28 28 28 28 28 28 29 29 29 29 29 28 27 27 27 27 27 28 29 28 28 28 28 27 26 26 26 25 26 26
32 32 32 32 31 31 31 32 32 31 31 31 30 30 30 30 29 29 29 29 29 30 30 30 29 29 28 28 28 29 29 29 29 29 29 28 27 27 26 26 26 26 26
33 33 33 33 32 32 32 33 33 33 33 33 32 32 32 31 31 30 30 30 30 30 30 30 29 29 28 29 29 29 29 30 30 30 29 28 27 27 27 27 27 27 27
34 34 34 34 34 34 34 34 35 35 35 35 34 33 33 33 32 32 31 31 31 31 31 31 30 30 30 30 30 31 31 31 31 31 30 28 28 28 28 28 28 29 28
36 36 36 36 36 36 36 36 36 36 35 35 34 33 33 34 33 33 33 33 32 32 31 31 31 31 31 31 31 31 31 31 31 31 30 29 29 29 29 29 30 30 30
37 38 38 38 38 37 38 38 37 36 36 36 35 34 34 35 34 35 35 34 33 32 32 31 32 32 32 32 32 31 31 31 31 31 31 30 30 30 30 30 31 31 31
38 38 38 38 38 38 38 38 38 38 37 36 36 36 34 34 34 34 35 34 33 32 32 32 32 32 32 32 32 32 32 31 31 31 31 31 31 32 32 32 32 32 32
37 38 38 38 38 38 38 38 38 38 37 37 35 35 33 33 33 33 34 33 33 33 33 32 32 32 33 33 32 32 32 32 32 32 32 32 32 32 33 33 32 32 32
36 36 37 37 38 38 38 38 37 37 35 34 34 34 34 33 32 33 33 32 33 33 33 33 33 32 32 32 32 32 33 33 33 33 33 33 32 32 32 32 32 32 32
36 36 36 37 37 37 38 38 37 36 34 34 34 34 33 32 32 32 33 33 33 33 33 33 32 32 32 33 33 34 34 34 33 33 32 32 32 32 32 32 32 33 33
35 35 36 36 36 35 35 34 34 34 33 34 35 35 34 33 33 33 33 33 33 33 33 32 32 32 33 33 33 34 34 34 34 34 33 33 33 33 33 33 34 34 35
33 33 33 32 32 33 33 33 33 33 33 34 34 34 34 33 33 33 33 33 33 33 33 32 32 33 34 34 34 34 35 35 35 34 34 34 34 34 34 34 34 34 34
32 31 32 32 32 32 33 33 33 33 32 32 33 33 33 33 33 33 34 34 33 33 34 34 34 34 34 34 34 34 34 35 35 34 33 34 34 34 35 35 35 35 35
31 31 31 30 31 31 30 31 31 31 31 31 31 31 31 31 32 33 33 33 33 33 34 34 34 34 34 34 34 34 34 34 34 33 33 33 33 33 34 34 34 35 35
Wind_Direction
337 339 342 343 342 341 340 339 339 338 336 338 338 339 338 337 337 336 337 338 337 332 325 321 320 320 318 319 320 319 319 317 315 314 311 310 311 310 310 309 308 304 300
327 330 333 335 336 336 334 332 332 332 331 333 335 334 333 335 336 334 332 333 332 331 328 326 325 321 319 319 320 321 321 320 318 316 313 311 309 308 309 308 307 307 304
319 322 324 327 329 332 332 331 330 329 329 330 332 332 330 330 330 330 329 329 329 328 327 324 323 322 320 318 319 319 320 320 320 318 316 314 312 311 310 308 308 308 307
316 316 317 319 321 325 328 328 327 327 328 328 328 329 327 326 325 325 324 324 323 323 322 321 320 318 317 315 314 315 316 317 318 318 315 314 312 311 311 310 309 309 308
309 310 310 312 314 316 319 322 321 322 323 323 322 322 322 322 321 320 318 319 320 319 319 318 317 316 316 315 314 314 314 315 316 316 314 313 311 310 310 310 309 308 308
303 305 306 308 310 312 312 315 315 316 317 317 318 318 319 319 320 319 316 316 316 316 316 315 314 313 313 312 312 313 313 313 313 314 312 309 307 306 306 306 306 306 305
298 300 303 305 307 308 309 309 310 311 311 312 312 313 314 314 315 316 315 311 312 313 313 312 312 311 310 310 310 310 310 310 310 310 309 307 305 304 304 304 304 303 303
297 298 299 301 302 303 304 305 306 307 307 308 309 311 312 311 309 311 311 309 310 310 309 308 308 308 308 308 308 308 308 309 309 309 307 305 304 303 302 301 301 301 300
294 295 296 298 299 300 300 301 302 303 304 304 305 306 307 307 306 307 307 307 307 308 307 307 304 304 305 305 306 306 306 306 307 307 307 305 303 302 300 299 299 299 299
292 293 294 294 295 297 298 298 299 300 301 302 303 302 302 302 302 302 303 304 304 304 305 305 305 303 302 304 304 304 305 305 305 304 305 304 302 302 301 299 299 297 296
287 290 292 292 293 294 295 297 298 298 299 299 300 299 300 300 300 300 300 301 302 301 302 302 302 302 300 302 303 304 304 303 303 303 303 303 302 301 301 300 299 297 294
285 287 289 289 290 292 293 294 296 297 297 296 297 298 299 300 299 300 299 298 299 301 301 301 301 299 299 299 301 303 305 304 303 302 302 302 301 300 301 301 298 299 298
283 285 286 287 287 288 290 291 293 293 293 294 294 295 297 298 299 298 298 298 298 298 299 300 300 297 297 298 298 299 302 303 303 302 301 300 299 299 299 299 298 299 301
283 284 285 286 286 287 288 290 291 291 290 291 292 292 293 294 296 296 296 297 297 297 298 300 299 299 298 297 297 298 299 300 300 301 301 299 298 299 299 299 299 299 299
282 284 285 286 285 286 288 288 288 289 290 291 291 291 291 291 292 292 293 294 295 295 296 298 297 297 296 296 296 297 297 298 299 299 299 299 298 299 299 299 299 299 298
279 281 283 284 283 284 285 286 286 287 288 290 289 288 289 290 291 290 291 291 292 293 294 296 296 295 294 294 294 296 297 297 297 297 297 296 296 297 297 297 298 298 296
278 280 281 281 281 282 282 283 284 283 284 287 287 288 288 288 289 289 289 289 290 291 293 294 294 294 294 293 293 294 295 295 296 296 295 295 294 294 295 296 296 297 296
278 279 279 280 280 281 282 282 283 282 283 284 285 286 287 288 289 288 288 288 289 290 291 292 292 293 294 294 293 294 295 295 295 295 295 295 294 294 294 294 295 295 296
279 279 280 280 280 281 282 281 281 283 284 284 286 287 287 288 288 288 289 288 288 288 289 290 291 292 293 294 293 293 294 294 294 294 294 293 293 293 293 293 293 293 294
279 280 281 281 280 280 281 282 282 283 284 285 285 286 287 287 288 289 290 288 288 288 289 291 291 292 292 294 293 292 293 293 294 293 292 292 291 291 291 291 291 293 293
280 281 281 281 281 280 280 281 282 282 282 284 286 286 286 286 287 289 290 288 288 288 289 290 291 292 292 293 293 292 292 293 294 293 292 292 291 290 290 290 290 292 294
281 281 281 281 282 283 282 280 280 280 281 282 284 285 286 287 288 289 289 289 288 288 288 289 290 291 292 292 292 291 291 292 293 293 291 290 290 290 290 290 292 292 292
281 281 282 282 282 282 283 282 281 281 281 282 284 284 285 286 287 288 289 289 288 288 289 289 291 292 292 293 292 293 293 292 293 293 292 289 288 289 289 290 292 292 292
282 283 283 284 284 284 283 283 283 284 283 283 283 284 285 285 286 287 288 289 289 289 290 291 292 291 292 293 293 293 294 292 292 292 290 289 288 288 289 290 291 291 291
282 283 284 285 286 286 285 284 284 285 285 284 285 285 284 284 286 288 289 289 289 289 290 290 291 292 293 294 294 293 293 293 291 290 289 290 291 291 291 291 291 292 292
283 284 285 286 286 287 287 288 288 287 287 287 286 286 286 287 288 289 289 290 290 290 290 290 291 292 293 293 293 293 292 292 292 291 290 291 292 293 294 293 292 292 292
Height
5914 5913 5911 5909 5907 5905 5903 5901 5899 5898 5896 5894 5892 5890 5888 5886 5883 5881 5879 5877 5874 5872 5869 5867 5865 5863 5860 5858 5856 5854 5851 5849 5847 5844 5841 5839 5837 5834 5832 5829 5827 5825 5823
5913 5911 5909 5907 5905 5903 5901 5900 5898 5896 5894 5892 5890 5888 5886 5883 5881 5879 5877 5875 5872 5870 5867 5865 5863 5860 5858 5856 5853 5851 5848 5846 5844 5841 5838 5836 5833 5831 5828 5826 5824 5821 5819
5911 5910 5908 5906 5904 5902 5900 5898 5896 5894 5892 5890 5888 5885 5883 5881 5879 5877 5875 5873 5870 5868 5865 5862 5860 5858 5855 5853 5850 5848 5845 5843 5840 5838 5835 5833 5830 5827 5825 5822 5820 5817 5815
5909 5908 5906 5904 5902 5900 5898 5896 5894 5892 5890 5888 5885 5883 5881 5879 5876 5874 5872 5870 5867 5865 5862 5860 5857 5855 5852 5850 5847 5845 5842 5839 5837 5834 5831 5829 5826 5823 5821 5818 5816 5814 5812
5907 5905 5903 5902 5900 5898 5895 5894 5892 5890 5887 5885 5883 5880 5878 5876 5873 5871 5869 5867 5864 5862 5859 5857 5854 5851 5849 5846 5844 5841 5839 5836 5833 5830 5827 5824 5822 5819 5817 5815 5812 5810 5808
5903 5902 5900 5898 5897 5895 5893 5891 5889 5886 5884 5882 5880 5877 5875 5872 5870 5868 5865 5863 5861 5858 5856 5853 5850 5848 5845 5842 5840 5837 5835 5832 5829 5826 5823 5820 5818 5815 5813 5810 5808 5806 5803
5900 5898 5897 5895 5893 5891 5889 5887 5885 5883 5881 5878 5876 5873 5871 5869 5866 5864 5861 5859 5856 5854 5851 5848 5846 5843 5841 5838 5835 5833 5830 5827 5825 5822 5819 5816 5813 5811 5808 5806 5803 5801 5798
5895 5894 5892 5890 5888 5886 5885 5883 5881 5879 5876 5874 5872 5869 5867 5864 5862 5859 5856 5853 5851 5849 5846 5843 5841 5838 5836 5833 5830 5828 5825 5822 5819 5816 5814 5811 5808 5806 5803 5801 5798 5795 5793
5891 5889 5887 5885 5883 5882 5880 5878 5876 5873 5871 5869 5867 5864 5862 5859 5857 5854 5851 5849 5846 5843 5841 5838 5835 5833 5831 5828 5825 5822 5819 5816 5814 5811 5808 5805 5803 5800 5797 5795 5792 5790 5787
5885 5884 5882 5880 5878 5876 5874 5872 5870 5868 5866 5863 5861 5858 5856 5854 5851 5849 5846 5843 5840 5838 5835 5832 5830 5827 5825 5822 5819 5816 5813 5810 5808 5805 5802 5800 5797 5794 5791 5788 5786 5783 5781
5878 5877 5875 5873 5871 5869 5868 5866 5864 5861 5859 5857 5855 5852 5850 5847 5845 5842 5839 5837 5834 5831 5828 5826 5823 5820 5818 5815 5812 5810 5807 5804 5801 5798 5795 5793 5790 5787 5784 5782 5779 5777 5774
5871 5870 5868 5866 5864 5862 5860 5859 5857 5854 5852 5850 5847 5845 5842 5840 5838 5835 5833 5830 5827 5824 5821 5818 5816 5813 5811 5808 5805 5803 5800 5797 5794 5791 5789 5786 5784 5781 5778 5775 5772 5769 5767
5863 5862 5860 5858 5856 5854 5852 5851 5849 5846 5844 5842 5839 5837 5835 5833 5830 5828 5825 5822 5819 5816 5813 5811 5808 5805 5803 5800 5798 5795 5793 5790 5787 5784 5782 5779 5776 5774 5771 5768 5765 5762 5760
5855 5853 5851 5849 5847 5846 5844 5842 5840 5838 5835 5833 5831 5829 5827 5825 5823 5820 5817 5814 5812 5809 5806 5803 5800 5798 5795 5793 5790 5788 5785 5782 5779 5777 5774 5772 5769 5766 5763 5761 5758 5755 5753
5846 5844 5842 5840 5838 5837 5835 5833 5831 5829 5826 5824 5822 5820 5817 5816 5814 5812 5809 5806 5804 5801 5798 5795 5792 5790 5787 5785 5782 5779 5777 5774 5772 5769 5766 5764 5761 5759 5756 5753 5751 5748 5745
5836 5835 5833 5831 5829 5827 5825 5824 5821 5819 5817 5815 5812 5810 5808 5806 5804 5802 5800 5797 5795 5792 5789 5786 5784 5781 5779 5776 5774 5771 5769 5766 5763 5761 5758 5756 5753 5751 5748 5746 5743 5740 5737
5826 5824 5822 5820 5818 5817 5815 5813 5811 5809 5806 5804 5802 5800 5798 5796 5794 5792 5790 5788 5785 5783 5780 5778 5775 5773 5770 5767 5765 5762 5760 5757 5755 5752 5750 5747 5745 5742 5740 5737 5734 5732 5729
5815 5813 5811 5809 5807 5806 5804 5802 5800 5798 5796 5794 5792 5790 5787 5785 5784 5781 5779 5777 5775 5773 5771 5768 5766 5763 5761 5758 5756 5753 5751 5748 5746 5744 5741 5738 5736 5733 5731 5728 5726 5723 5720
5804 5803 5801 5799 5797 5795 5793 5792 5789 5787 5785 5783 5781 5779 5776 5774 5773 5771 5768 5767 5765 5763 5761 5759 5756 5754 5751 5749 5746 5744 5741 5739 5737 5734 5732 5729 5727 5724 5721 5719 5716 5713 5710
5794 5792 5790 5788 5786 5784 5783 5780 5778 5777 5775 5773 5771 5768 5766 5764 5762 5760 5758 5756 5755 5753 5751 5749 5746 5744 5742 5739 5737 5734 5732 5729 5727 5724 5722 5719 5716 5714 5711 5708 5706 5703 5700
5783 5781 5779 5777 5775 5773 5771 5769 5767 5765 5764 5762 5760 5758 5756 5754 5752 5750 5748 5747 5745 5743 5742 5739 5737 5734 5732 5729 5727 5724 5722 5719 5716 5714 5711 5709 5706 5703 5701 5698 5695 5693 5690
5772 5770 5768 5766 5764 5762 5760 5758 5756 5754 5753 5751 5750 5748 5746 5744 5742 5741 5739 5737 5735 5733 5732 5730 5727 5725 5722 5720 5717 5714 5711 5708 5706 5703 5701 5698 5696 5693 5691 5688 5685 5683 5680
5761 5759 5758 5755 5753 5751 5749 5747 5745 5743 5742 5741 5739 5738 5737 5735 5733 5731 5729 5727 5725 5724 5722 5719 5717 5715 5712 5710 5707 5704 5701 5698 5696 5693 5691 5688 5686 5683 5680 5677 5675 5672 5669
5752 5749 5747 5745 5743 5742 5740 5738 5735 5734 5732 5730 5729 5728 5726 5725 5723 5721 5719 5718 5716 5714 5711 5709 5707 5705 5702 5699 5697 5694 5691 5688 5685 5683 5680 5678 5675 5673 5670 5667 5664 5661 5658
5742 5741 5739 5737 5735 5733 5731 5728 5726 5724 5722 5720 5719 5717 5716 5715 5713 5711 5709 5707 5705 5703 5701 5699 5697 5694 5692 5689 5686 5683 5681 5678 5675 5672 5670 5668 5665 5662 5659 5656 5653 5650 5647
5734 5732 5730 5728 5726 5724 5722 5720 5717 5715 5713 5711 5709 5707 5706 5704 5703 5701 5699 5697 5695 5692 5690 5688 5686 5684 5681 5678 5676 5673 5670 5668 5665 5662 5660 5657 5655 5652 5649 5646 5643 5639 5636